When you browse on this site, cookies collect data to enhance your experience and personalize the content and advertising you see.
Visit our Privacy Policy to learn more. By continuing to use the site, you agree to this use of cookies and data.
  • en Suisse
  • Liste des pays
  • À 7 jours
  • Température de l'eau
  • Carte météo
  • Widgets météo
  • user-avatar
    Se connecter

    Météo par heure à Sydney

    Ce jour, 4 Juin, Jeudi

    Heure Température Précipitation Vent Pression Humidité
    00:00 +9°C° 0 mm 7 m/s 771 mmHg 65%
    01:00 +9°C° 0 mm 7 m/s 771 mmHg 65%
    02:00 +8°C° 0 mm 7 m/s 771 mmHg 66%
    03:00 +8°C° 0 mm 7 m/s 772 mmHg 67%
    04:00 +8°C° 0 mm 7 m/s 772 mmHg 71%
    05:00 +8°C° 0.1 mm 7 m/s 772 mmHg 71%
    06:00 +7°C° 0.1 mm 6 m/s 772 mmHg 72%
    07:00 +7°C° 0.1 mm 6 m/s 772 mmHg 73%
    08:00 +9°C° 0.1 mm 6 m/s 773 mmHg 67%
    09:00 +11°C° 0.1 mm 6 m/s 773 mmHg 61%
    10:00 +13°C° 0 mm 6 m/s 773 mmHg 54%
    11:00 +14°C° 0 mm 5 m/s 773 mmHg 52%
    12:00 +15°C° 0 mm 5 m/s 772 mmHg 49%
    13:00 +16°C° 0 mm 5 m/s 771 mmHg 47%
    14:00 +16°C° 0 mm 5 m/s 771 mmHg 50%
    15:00 +15°C° 0 mm 5 m/s 771 mmHg 53%
    16:00 +15°C° 0 mm 4 m/s 772 mmHg 57%
    17:00 +14°C° 0 mm 4 m/s 772 mmHg 63%
    18:00 +12°C° 0 mm 4 m/s 772 mmHg 69%
    19:00 +11°C° 0 mm 3 m/s 772 mmHg 75%
    20:00 +11°C° 0 mm 3 m/s 772 mmHg 77%
    21:00 +10°C° 0 mm 3 m/s 773 mmHg 79%
    22:00 +10°C° 0 mm 3 m/s 773 mmHg 81%
    23:00 +9°C° 0 mm 3 m/s 772 mmHg 81%

    Demain, 5 Juin, Vendredi

    Heure Température Précipitation Vent Pression Humidité
    00:00 +9°C° 0 mm 3 m/s 772 mmHg 81%
    01:00 +9°C° 0 mm 3 m/s 772 mmHg 81%
    02:00 +8°C° 0 mm 3 m/s 772 mmHg 82%
    03:00 +8°C° 0 mm 3 m/s 771 mmHg 82%
    04:00 +8°C° 0 mm 2 m/s 771 mmHg 83%
    05:00 +7°C° 0 mm 2 m/s 771 mmHg 82%
    06:00 +7°C° 0 mm 2 m/s 771 mmHg 82%
    07:00 +7°C° 0 mm 2 m/s 772 mmHg 82%
    08:00 +9°C° 0 mm 2 m/s 771 mmHg 73%
    09:00 +12°C° 0 mm 2 m/s 771 mmHg 65%
    10:00 +14°C° 0 mm 2 m/s 771 mmHg 56%
    11:00 +15°C° 0 mm 2 m/s 770 mmHg 51%
    12:00 +18°C° 0 mm 1 m/s 769 mmHg 45%
    13:00 +19°C° 0 mm 1 m/s 769 mmHg 40%
    14:00 +19°C° 0 mm 1 m/s 768 mmHg 41%
    15:00 +18°C° 0 mm 2 m/s 768 mmHg 42%
    16:00 +18°C° 0 mm 2 m/s 768 mmHg 43%
    17:00 +16°C° 0 mm 2 m/s 768 mmHg 53%
    18:00 +14°C° 0 mm 2 m/s 768 mmHg 62%
    19:00 +13°C° 0 mm 2 m/s 769 mmHg 72%
    20:00 +12°C° 0 mm 2 m/s 769 mmHg 71%
    21:00 +12°C° 0 mm 1 m/s 769 mmHg 70%
    22:00 +11°C° 0 mm 1 m/s 769 mmHg 69%
    23:00 +10°C° 0 mm 2 m/s 769 mmHg 68%

    Après-demain, 6 Juin, Samedi

    Heure Température Précipitation Vent Pression Humidité
    00:00 +10°C° 0 mm 2 m/s 768 mmHg 67%
    01:00 +9°C° 0 mm 3 m/s 768 mmHg 66%
    02:00 +9°C° 0 mm 3 m/s 768 mmHg 67%
    03:00 +8°C° 0 mm 3 m/s 768 mmHg 67%
    04:00 +8°C° 0 mm 3 m/s 767 mmHg 67%
    05:00 +8°C° 0 mm 3 m/s 768 mmHg 68%
    06:00 +7°C° 0 mm 3 m/s 768 mmHg 68%
    07:00 +7°C° 0 mm 3 m/s 768 mmHg 69%
    08:00 +9°C° 0 mm 3 m/s 768 mmHg 62%
    09:00 +11°C° 0 mm 3 m/s 768 mmHg 55%
    10:00 +13°C° 0 mm 3 m/s 767 mmHg 47%
    11:00 +15°C° 0 mm 2 m/s 767 mmHg 46%
    12:00 +18°C° 0 mm 1 m/s 766 mmHg 45%
    13:00 +19°C° 0 mm 1 m/s 765 mmHg 44%
    14:00 +19°C° 0 mm 1 m/s 765 mmHg 46%
    15:00 +18°C° 0 mm 2 m/s 765 mmHg 49%
    16:00 +17°C° 0 mm 2 m/s 764 mmHg 52%
    17:00 +16°C° 0 mm 2 m/s 765 mmHg 61%
    18:00 +14°C° 0 mm 2 m/s 765 mmHg 70%
    19:00 +13°C° 0 mm 2 m/s 765 mmHg 79%
    20:00 +12°C° 0 mm 2 m/s 765 mmHg 79%
    21:00 +12°C° 0 mm 2 m/s 765 mmHg 80%
    22:00 +11°C° 0 mm 1 m/s 765 mmHg 80%
    23:00 +10°C° 0 mm 2 m/s 765 mmHg 77%

    7 Juin, Dimanche

    Heure Température Précipitation Vent Pression Humidité
    00:00 +9°C° 0 mm 2 m/s 765 mmHg 74%
    01:00 +9°C° 0 mm 3 m/s 765 mmHg 71%
    02:00 +9°C° 0 mm 3 m/s 765 mmHg 71%
    03:00 +8°C° 0 mm 3 m/s 765 mmHg 71%
    04:00 +8°C° 0 mm 3 m/s 764 mmHg 71%
    05:00 +8°C° 0 mm 3 m/s 765 mmHg 72%
    06:00 +8°C° 0 mm 3 m/s 765 mmHg 73%
    07:00 +8°C° 0 mm 3 m/s 765 mmHg 73%
    08:00 +9°C° 0 mm 3 m/s 766 mmHg 69%
    09:00 +11°C° 0 mm 3 m/s 766 mmHg 65%
    10:00 +12°C° 0 mm 4 m/s 766 mmHg 60%
    11:00 +13°C° 0.1 mm 4 m/s 765 mmHg 63%
    12:00 +14°C° 0.1 mm 4 m/s 765 mmHg 66%
    13:00 +15°C° 0.1 mm 5 m/s 765 mmHg 68%
    14:00 +14°C° 0.8 mm 5 m/s 765 mmHg 72%
    15:00 +14°C° 0.8 mm 6 m/s 765 mmHg 75%
    16:00 +13°C° 0.8 mm 6 m/s 765 mmHg 79%
    17:00 +13°C° 0.7 mm 6 m/s 766 mmHg 79%
    18:00 +13°C° 0.7 mm 6 m/s 766 mmHg 79%
    19:00 +11°C° 0.7 mm 6 m/s 767 mmHg 79%
    20:00 +11°C° 0.3 mm 6 m/s 767 mmHg 80%
    21:00 +10°C° 0.3 mm 6 m/s 768 mmHg 81%
    22:00 +10°C° 0.3 mm 6 m/s 768 mmHg 82%
    23:00 +9°C° 0.2 mm 5 m/s 768 mmHg 82%

    8 Juin, Lundi

    Heure Température Précipitation Vent Pression Humidité
    00:00 +8°C° 0.2 mm 5 m/s 768 mmHg 83%
    01:00 +8°C° 0.2 mm 5 m/s 769 mmHg 83%
    02:00 +8°C° 0.2 mm 5 m/s 769 mmHg 83%
    03:00 +8°C° 0.2 mm 6 m/s 768 mmHg 83%
    04:00 +7°C° 0.2 mm 6 m/s 768 mmHg 84%
    05:00 +7°C° 0.1 mm 6 m/s 769 mmHg 84%
    06:00 +7°C° 0.1 mm 6 m/s 770 mmHg 85%
    07:00 +7°C° 0.1 mm 5 m/s 770 mmHg 85%
    08:00 +9°C° 0.1 mm 6 m/s 770 mmHg 79%
    09:00 +10°C° 0.1 mm 6 m/s 771 mmHg 72%
    10:00 +13°C° 0.1 mm 6 m/s 771 mmHg 66%
    11:00 +13°C° 0.2 mm 6 m/s 770 mmHg 66%
    12:00 +14°C° 0.2 mm 6 m/s 770 mmHg 66%
    13:00 +14°C° 0.2 mm 5 m/s 770 mmHg 67%
    14:00 +14°C° 0.2 mm 5 m/s 770 mmHg 69%
    15:00 +14°C° 0.2 mm 5 m/s 770 mmHg 71%
    16:00 +14°C° 0.2 mm 4 m/s 770 mmHg 73%
    17:00 +13°C° 0.2 mm 3 m/s 771 mmHg 78%
    18:00 +12°C° 0.2 mm 3 m/s 772 mmHg 83%
    19:00 +13°C° 0.2 mm 2 m/s 772 mmHg 88%
    20:00 +12°C° 0.1 mm 2 m/s 773 mmHg 88%
    21:00 +12°C° 0.1 mm 2 m/s 773 mmHg 87%
    22:00 +12°C° 0.1 mm 1 m/s 773 mmHg 86%
    23:00 +12°C° 0 mm 1 m/s 773 mmHg 85%

    9 Juin, Mardi

    Heure Température Précipitation Vent Pression Humidité
    00:00 +12°C° 0 mm 1 m/s 773 mmHg 84%
    01:00 +12°C° 0 mm 1 m/s 773 mmHg 83%
    02:00 +12°C° 0 mm 1 m/s 773 mmHg 85%
    03:00 +11°C° 0 mm 1 m/s 773 mmHg 87%
    04:00 +11°C° 0 mm 1 m/s 773 mmHg 88%
    05:00 +10°C° 0 mm 2 m/s 773 mmHg 89%
    06:00 +9°C° 0 mm 2 m/s 773 mmHg 90%
    07:00 +9°C° 0 mm 2 m/s 774 mmHg 90%
    08:00 +12°C° 0 mm 2 m/s 774 mmHg 83%
    09:00 +14°C° 0 mm 2 m/s 774 mmHg 76%
    10:00 +15°C° 0 mm 2 m/s 774 mmHg 69%
    11:00 +16°C° 0 mm 2 m/s 773 mmHg 63%
    12:00 +19°C° 0 mm 1 m/s 773 mmHg 57%
    13:00 +20°C° 0 mm 1 m/s 772 mmHg 51%
    14:00 +19°C° 0 mm 1 m/s 772 mmHg 54%
    15:00 +18°C° 0 mm 2 m/s 772 mmHg 58%
    16:00 +17°C° 0 mm 3 m/s 772 mmHg 62%
    17:00 +16°C° 0 mm 3 m/s 772 mmHg 67%
    18:00 +14°C° 0 mm 3 m/s 773 mmHg 73%
    19:00 +13°C° 0 mm 4 m/s 773 mmHg 78%
    20:00 +13°C° 0 mm 3 m/s 773 mmHg 81%
    21:00 +12°C° 0 mm 3 m/s 773 mmHg 84%
    22:00 +13°C° 0 mm 2 m/s 773 mmHg 86%
    23:00 +13°C° 0.1 mm 2 m/s 773 mmHg 87%
    Voir plus